Meteo Giornale » Osservazioni meteo Svizzera » Grenchen

ore: 16:50 - Osservazioni Meteo Grenchen
Lat. 47° 10' N Lon. 7° 24' E Alt. 430 metri s.l.m.

poco_nuvoloso

25 °C

Poco Nuvoloso

Temp. 24 Ore

11 °C

25 °C

Nord

5.5 Km/h

Dew point 11 °C

Umidità 41 %

Visibilità  10 Km

Il sole sorge alle ore 06:49

Il sole tramonta alle ore 20:11

Data e Ora Cielo e Fenomeni T °C DP °C Um. % Pres. hPa Vis. km Vento km/h
Oggi h: 16:50 poco_nuvoloso Poco Nuvoloso 25 11 41 1021 10 N 5.5
Oggi h: 16:20 poco_nuvoloso Poco Nuvoloso 25 11 41 1021 10 N 5.5
Oggi h: 15:50 poco_nuvoloso Poco Nuvoloso 25 12 44 1021 10 E 7.4
Oggi h: 15:20 poco_nuvoloso Poco Nuvoloso 24 12 47 1021 10 N 5.5
Oggi h: 14:50 poco_nuvoloso Poco Nuvoloso 24 12 47 1022 10 N 5.5
Oggi h: 14:20 nuvoloso Nuvoloso 24 13 50 1022 10 N 5.5
Oggi h: 13:50 nuvoloso Nuvoloso 24 13 50 1022 10 N 3.7
Oggi h: 13:20 poco_nuvoloso Poco Nuvoloso 23 11 46 1022 10 N 5.5
Oggi h: 12:50 poco_nuvoloso Poco Nuvoloso 23 13 53 1022 10 N 5.5
Oggi h: 12:20 poco_nuvoloso Poco Nuvoloso 22 14 60 1023 10 N 1.8
Oggi h: 11:50 poco_nuvoloso Poco Nuvoloso 22 13 56 1023 10 N 3.7
Oggi h: 11:20 poco_nuvoloso Poco Nuvoloso 20 13 64 1023 10 N 1.8
Oggi h: 10:50 poco_nuvoloso Poco Nuvoloso 20 14 68 1023 10 N 1.8
Oggi h: 10:20 poco_nuvoloso Poco Nuvoloso 18 13 72 1023 10 N 1.8
Oggi h: 09:50 poco_nuvoloso Poco Nuvoloso 17 14 82 1023 10 N 1.8
Oggi h: 09:20 sereno Sereno 16 15 93 1023 10 N 0
Oggi h: 08:50 sereno Sereno 15 14 93 1023 10 N 1.8
Oggi h: 08:20 sereno Sereno 14 13 93 1023 10 N 1.8
Oggi h: 07:50 sereno Sereno 12 12 100 1023 10 N 0
Oggi h: 07:20 sereno Sereno 11 11 100 1023 10 N 0
Oggi h: 06:50 sereno Sereno 11 11 100 1023 10 N 1.8
Oggi h: 06:20 sereno Sereno 11 11 100 1023 10 N 3.7
Oggi h: 05:50 sereno Sereno 12 12 100 1023 10 N 1.8
Oggi h: 05:20 sereno Sereno 11 11 100 1023 10 N 0
Oggi h: 04:50 sereno Sereno 12 12 100 1023 10 N 0
Oggi h: 04:20 sereno Sereno 12 12 100 1023 10 N 1.8
Oggi h: 03:50 sereno Sereno 12 12 100 1023 10 N 1.8
Oggi h: 03:20 sereno Sereno 13 13 100 1023 10 N 1.8
Oggi h: 02:50 sereno Sereno 13 13 100 1023 10 N 5.5
Oggi h: 02:20 sereno Sereno 13 13 100 1023 10 N 5.5
Oggi h: 01:50 sereno Sereno 13 13 100 1022 10 N 3.7
Oggi h: 01:20 sereno Sereno 14 14 100 1022 10 N/NE 7.4
Oggi h: 00:50 sereno Sereno 13 13 100 1022 10 N 5.5
Oggi h: 00:20 sereno Sereno 15 13 87 1022 10 N 1.8
Ieri h: 23:50 sereno Sereno 15 13 87 1022 10 N 3.7
Ieri h: 23:20 sereno Sereno 15 13 87 1022 10 N 1.8
Ieri h: 22:50 sereno Sereno 17 12 72 1022 10 N 5.5
Ieri h: 22:20 sereno Sereno 18 11 63 1022 10 N 5.5
Ieri h: 21:50 sereno Sereno 19 10 55 1021 10 O/SO 9.3
Ieri h: 21:20 sereno Sereno 20 10 52 1021 10 O/SO 9.3
Ieri h: 20:50 sereno Sereno 22 9 43 1021 10 O 18.5
Ieri h: 20:20 sereno Sereno 22 9 43 1020 10 SO 16.7
Ieri h: 19:50 sereno Sereno 22 10 46 1020 10 O 11.1
Ieri h: 19:20 sereno Sereno 23 10 43 1020 10 O 20.3
Ieri h: 18:50 poco_nuvoloso Poco Nuvoloso 23 10 43 1020 10 O 29.6
Ieri h: 18:20 poco_nuvoloso Poco Nuvoloso 24 10 41 1019 10 O 24
Ieri h: 17:50 poco_nuvoloso Poco Nuvoloso 25 10 38 1019 10 O 25.9